VE1DX Weather Reports


Display with metric or nautical units.
time (UTC)temp
F
wind
direction
speed
MPH
gust
MPH
rain 1hr
in
rain 24hr
in
rain mn
in
humidity
%
barometer
mb
20260906093517 55 338 4.0 5.0 0.00 0.08 0.00 97 1003.6
20260906093016 55 338 4.0 8.0 0.00 0.08 0.00 97 1003.5
20260906092516 55 338 4.0 6.0 0.00 0.08 0.00 97 1003.5
20260906092016 55 338 4.0 7.0 0.00 0.08 0.00 97 1003.5
20260906091516 55 0 4.0 9.0 0.00 0.08 0.00 97 1003.5
20260906091016 56 338 4.0 9.0 0.00 0.08 0.00 97 1003.5
20260906090517 56 338 3.0 6.0 0.00 0.08 0.00 97 1003.5
20260906090016 56 338 4.0 9.0 0.00 0.08 0.00 97 1003.5
20260906085516 56 338 5.0 9.0 0.00 0.08 0.00 97 1003.5
20260906085016 56 338 4.0 7.0 0.00 0.08 0.00 97 1003.3
20260906084516 56 338 4.0 9.0 0.00 0.08 0.00 97 1003.4
20260906084016 56 338 4.0 10.0 0.00 0.08 0.00 97 1003.4
20260906083516 56 0 4.0 8.0 0.00 0.08 0.00 97 1003.4
20260906083017 56 0 4.0 8.0 0.00 0.08 0.00 97 1003.2
20260906082516 56 0 4.0 8.0 0.00 0.08 0.00 97 1003.3
20260906082016 56 338 5.0 9.0 0.00 0.08 0.00 97 1003.4
20260906081517 56 338 4.0 6.0 0.00 0.08 0.00 97 1003.4
20260906081016 56 0 4.0 9.0 0.00 0.08 0.00 98 1003.4
20260906080516 56 0 4.0 7.0 0.00 0.08 0.00 98 1003.4
20260906080016 56 0 4.0 9.0 0.00 0.08 0.00 97 1003.4
20260906075517 56 338 4.0 8.0 0.00 0.08 0.00 98 1003.4
20260906075016 56 338 4.0 7.0 0.00 0.08 0.00 98 1003.5
20260906074516 56 338 4.0 7.0 0.00 0.09 0.00 98 1003.5
20260906074016 56 338 5.0 10.0 0.00 0.09 0.00 98 1003.5
20260906073516 56 338 4.0 7.0 0.00 0.09 0.00 98 1003.5
20260906073016 56 338 5.0 7.0 0.00 0.09 0.00 98 1003.5
20260906072516 56 338 5.0 11.0 0.00 0.09 0.00 98 1003.4
20260906072017 56 338 5.0 9.0 0.00 0.09 0.00 98 1003.4
20260906071516 56 338 5.0 8.0 0.00 0.09 0.00 98 1003.2
20260906071016 56 338 5.0 9.0 0.00 0.09 0.00 99 1003.2
20260906070516 56 0 5.0 11.0 0.00 0.09 0.00 98 1003.2
20260906070016 56 0 5.0 9.0 0.00 0.09 0.00 98 1003.2
20260906065516 56 338 5.0 9.0 0.00 0.09 0.00 98 1003.2
20260906065016 56 0 4.0 6.0 0.00 0.09 0.00 99 1003.2
20260906064516 56 0 5.0 10.0 0.00 0.09 0.00 99 1003.2
20260906064016 56 338 4.0 8.0 0.00 0.09 0.00 99 1003.3
20260906063516 56 338 4.0 6.0 0.00 0.09 0.00 99 1003.2
20260906063016 56 338 5.0 13.0 0.00 0.09 0.00 99 1003.2
20260906062516 56 338 4.0 10.0 0.00 0.09 0.00 99 1003.3
20260906062016 56 0 4.0 8.0 0.00 0.09 0.00 99 1003.3
20260906061516 56 0 5.0 9.0 0.00 0.09 0.00 99 1003.2
20260906061017 56 0 5.0 9.0 0.00 0.09 0.00 99 1003.3
20260906060516 56 0 5.0 9.0 0.00 0.09 0.00 99 1003.2
20260906060016 56 0 5.0 9.0 0.00 0.09 0.00 99 1003.3
20260906055516 56 338 5.0 9.0 0.00 0.09 0.00 99 1003.2
20260906055016 56 0 3.0 5.0 0.00 0.09 0.00 99 1003.1
20260906054516 56 0 5.0 7.0 0.00 0.09 0.00 99 1003.1
20260906054016 56 338 4.0 7.0 0.00 0.09 0.00 100 1003.1
20260906053516 56 338 5.0 8.0 0.00 0.09 0.00 100 1003.1
20260906053016 56 338 5.0 9.0 0.00 0.09 0.00 100 1003.1
20260906052516 56 338 4.0 8.0 0.00 0.09 0.00 100 1003.1
20260906052016 56 338 4.0 8.0 0.00 0.09 0.00 100 1003.1
20260906051516 56 0 4.0 7.0 0.00 0.09 0.00 100 1003.1
20260906051016 56 0 4.0 8.0 0.00 0.09 0.00 100 1003.1
20260906050516 56 338 4.0 7.0 0.00 0.09 0.00 100 1003.2
20260906050016 56 0 4.0 9.0 0.00 0.09 0.00 100 1003.2
20260906045516 56 338 5.0 11.0 0.00 0.09 0.00 100 1003.3
20260906045016 56 338 5.0 9.0 0.00 0.09 0.00 99 1003.2
20260906044516 56 0 5.0 13.0 0.00 0.09 0.00 99 1003.2
20260906044016 56 0 5.0 8.0 0.00 0.09 0.00 99 1003.3
20260906043516 56 0 4.0 8.0 0.00 0.09 0.00 100 1003.3
20260906043016 56 338 5.0 8.0 0.00 0.09 0.00 100 1003.3
20260906042516 56 0 4.0 10.0 0.00 0.09 0.00 100 1003.3
20260906042016 56 0 5.0 7.0 0.00 0.09 0.00 100 1003.3
20260906041516 56 338 5.0 10.0 0.00 0.09 0.00 100 1003.3
20260906041016 56 0 4.0 8.0 0.00 0.09 0.00 100 1003.3
20260906040516 56 0 4.0 8.0 0.00 0.09 0.00 100 1003.3
20260906040016 56 338 5.0 9.0 0.00 0.09 0.00 99 1003.3
20260906035516 56 0 4.0 8.0 0.00 0.09 0.00 99 1003.3
20260906035016 57 0 4.0 8.0 0.00 0.09 0.00 99 1003.5
20260906034516 57 338 4.0 10.0 0.00 0.09 0.00 99 1003.5
20260906034016 57 0 5.0 10.0 0.00 0.09 0.00 99 1003.5
20260906033517 57 0 4.0 6.0 0.00 0.09 0.00 99 1003.5
20260906033016 57 338 4.0 8.0 0.00 0.09 0.00 99 1003.5
20260906032516 57 338 5.0 9.0 0.00 0.09 0.00 98 1003.5
20260906032016 57 0 5.0 9.0 0.00 0.09 0.00 98 1003.3
20260906031516 57 338 4.0 7.0 0.00 0.09 0.00 99 1003.4
20260906031016 57 0 6.0 13.0 0.00 0.09 0.00 98 1003.4
20260906030516 57 338 6.0 13.0 0.00 0.09 0.00 98 1003.4
20260906030016 57 338 5.0 10.0 0.00 0.09 0.00 98 1003.4
20260906025517 57 0 6.0 11.0 0.00 0.09 0.09 98 1003.4
20260906025017 57 0 6.0 14.0 0.00 0.09 0.09 98 1003.4
20260906024517 57 338 6.0 10.0 0.00 0.09 0.09 99 1003.4
20260906024017 57 0 5.0 10.0 0.00 0.09 0.09 99 1003.4
20260906023517 57 0 4.0 8.0 0.00 0.09 0.09 99 1003.3
20260906023017 57 0 5.0 9.0 0.00 0.09 0.09 99 1003.4
20260906022517 57 338 4.0 7.0 0.00 0.09 0.09 99 1003.4
20260906022017 57 0 5.0 9.0 0.00 0.09 0.09 99 1003.4
20260906021517 57 0 5.0 10.0 0.00 0.09 0.09 99 1003.7
20260906021017 57 338 5.0 10.0 0.00 0.09 0.09 99 1003.6
20260906020517 57 338 5.0 7.0 0.00 0.09 0.09 99 1003.7
20260906020017 57 338 5.0 9.0 0.00 0.09 0.09 98 1003.8
20260906015517 57 0 6.0 9.0 0.00 0.09 0.09 98 1003.7
20260906015017 57 338 4.0 7.0 0.00 0.09 0.09 99 1003.8
20260906014517 57 338 5.0 10.0 0.00 0.09 0.09 99 1003.7
20260906014017 57 0 5.0 8.0 0.00 0.09 0.09 99 1003.7
20260906013516 57 338 5.0 11.0 0.00 0.09 0.09 99 1003.8
20260906013017 57 338 5.0 10.0 0.00 0.09 0.09 99 1003.8
20260906012517 57 0 6.0 12.0 0.00 0.09 0.09 99 1003.8
20260906012017 57 338 6.0 14.0 0.00 0.09 0.09 99 1003.8
20260906011517 57 0 5.0 8.0 0.00 0.09 0.09 99 1003.8
20260906011017 57 0 6.0 12.0 0.00 0.09 0.09 99 1004.0
20260906010517 57 0 4.0 7.0 0.00 0.09 0.09 99 1003.8
20260906010017 57 0 5.0 9.0 0.00 0.09 0.09 99 1003.8
20260906005517 57 0 5.0 9.0 0.00 0.09 0.09 99 1003.8
20260906005017 57 0 5.0 11.0 0.00 0.09 0.09 99 1003.9
20260906004517 57 338 5.0 9.0 0.00 0.09 0.09 99 1003.8
20260906004017 57 338 6.0 10.0 0.00 0.09 0.09 99 1003.8
20260906003517 57 0 5.0 10.0 0.00 0.09 0.09 99 1003.8
20260906003017 57 0 5.0 9.0 0.00 0.09 0.09 99 1003.9
20260906002517 57 0 5.0 12.0 0.00 0.09 0.09 99 1003.9
20260906002017 57 0 4.0 7.0 0.00 0.09 0.09 99 1003.9
20260906001517 57 0 5.0 10.0 0.00 0.09 0.09 100 1003.8
20260906001016 57 338 5.0 9.0 0.00 0.09 0.09 100 1003.8
20260906000517 57 0 5.0 8.0 0.00 0.09 0.09 100 1003.8
20260906000017 57 0 5.0 10.0 0.00 0.09 0.09 100 1003.8
20260905235517 57 0 5.0 10.0 0.00 0.09 0.09 100 1003.7
20260905235017 57 0 6.0 13.0 0.00 0.09 0.09 100 1003.7
20260905234517 57 0 5.0 10.0 0.00 0.09 0.09 100 1003.6
20260905234017 57 338 5.0 8.0 0.00 0.09 0.09 100 1003.6
20260905233517 57 0 5.0 8.0 0.00 0.09 0.09 100 1003.5
20260905233016 57 338 5.0 9.0 0.00 0.09 0.09 100 1003.4
20260905232517 57 0 6.0 9.0 0.01 0.09 0.09 100 1003.5
20260905232017 57 338 5.0 9.0 0.01 0.09 0.09 100 1003.4
20260905231517 57 338 5.0 9.0 0.01 0.09 0.09 100 1003.4
20260905231017 57 0 5.0 10.0 0.01 0.09 0.09 100 1003.4
20260905230516 57 0 5.0 9.0 0.01 0.09 0.09 100 1003.2
20260905230016 57 338 5.0 8.0 0.01 0.09 0.09 100 1003.3
20260905225517 57 0 6.0 9.0 0.01 0.09 0.09 100 1003.3
20260905225017 57 338 4.0 10.0 0.01 0.09 0.09 100 1003.2
20260905224517 57 0 4.0 7.0 0.02 0.09 0.09 100 1003.2
20260905224017 57 0 4.0 6.0 0.02 0.09 0.09 100 1003.1
20260905223516 57 338 4.0 7.0 0.02 0.09 0.09 100 1003.0
20260905223017 57 0 4.0 9.0 0.02 0.09 0.09 100 1003.0
20260905222517 57 338 4.0 8.0 0.02 0.08 0.08 100 1003.0
20260905222017 57 338 4.0 7.0 0.02 0.08 0.08 100 1003.0
20260905221517 57 338 4.0 6.0 0.02 0.08 0.08 100 1002.9
20260905221017 57 0 4.0 7.0 0.03 0.08 0.08 100 1002.9
20260905220517 57 338 5.0 8.0 0.03 0.08 0.08 100 1002.9
20260905220017 57 338 5.0 14.0 0.03 0.08 0.08 100 1002.9
20260905215517 57 0 4.0 8.0 0.03 0.08 0.08 100 1002.9
20260905215017 57 0 5.0 8.0 0.03 0.08 0.08 100 1002.8
20260905214517 57 338 5.0 10.0 0.02 0.07 0.07 100 1002.8
20260905214017 57 338 6.0 11.0 0.02 0.07 0.07 100 1002.7
20260905213516 57 0 5.0 9.0 0.02 0.07 0.07 100 1002.7
20260905213017 57 0 4.0 6.0 0.02 0.06 0.06 100 1002.7
20260905212517 57 338 5.0 9.0 0.01 0.06 0.06 100 1002.5
20260905212017 57 338 5.0 10.0 0.01 0.07 0.06 100 1002.5
20260905211517 57 0 4.0 8.0 0.01 0.09 0.06 100 1002.4
20260905211016 57 338 5.0 8.0 0.00 0.08 0.05 100 1002.4
20260905210517 57 0 5.0 8.0 0.00 0.08 0.05 100 1002.4
20260905210017 57 0 4.0 8.0 0.00 0.08 0.05 100 1002.3
20260905205517 57 0 5.0 9.0 0.00 0.08 0.05 100 1002.2
20260905205017 57 0 5.0 10.0 0.00 0.08 0.05 100 1002.1
20260905204516 57 0 5.0 10.0 0.00 0.08 0.05 100 1002.2
20260905204017 57 0 6.0 11.0 0.00 0.08 0.05 100 1002.1
20260905203516 57 0 6.0 10.0 0.00 0.08 0.05 100 1002.1
20260905203017 57 0 6.0 12.0 0.00 0.08 0.05 100 1002.0
20260905202517 57 338 6.0 10.0 0.00 0.08 0.05 100 1001.9
20260905202017 57 0 6.0 14.0 0.00 0.08 0.05 100 1001.9
20260905201517 57 0 6.0 11.0 0.00 0.08 0.05 100 1002.0
20260905201017 57 0 6.0 12.0 0.00 0.09 0.05 100 1001.9
20260905200516 57 0 7.0 13.0 0.00 0.09 0.05 100 1001.9
20260905200016 58 0 6.0 12.0 0.00 0.10 0.05 100 1001.8
20260905195517 58 0 5.0 9.0 0.00 0.10 0.05 100 1001.8
20260905195017 57 0 7.0 11.0 0.00 0.11 0.05 100 1001.7
20260905194517 58 0 6.0 10.0 0.00 0.13 0.05 100 1001.7
20260905194017 57 338 7.0 13.0 0.00 0.14 0.05 100 1001.7
20260905193517 58 0 7.0 12.0 0.00 0.15 0.05 100 1001.6
20260905193017 58 338 6.0 12.0 0.00 0.15 0.05 100 1001.6
20260905192517 58 0 6.0 11.0 0.00 0.15 0.05 100 1001.6
20260905192017 58 338 7.0 15.0 0.00 0.15 0.05 100 1001.5
20260905191517 58 338 7.0 13.0 0.00 0.15 0.05 100 1001.7
20260905191017 58 0 6.0 10.0 0.00 0.15 0.05 100 1001.5
20260905190516 58 0 6.0 13.0 0.00 0.15 0.05 100 1001.4
20260905190016 58 0 8.0 13.0 0.00 0.15 0.05 100 1001.4
20260905185517 57 0 6.0 11.0 0.00 0.15 0.05 100 1001.3
20260905185017 57 0 6.0 12.0 0.00 0.15 0.05 100 1001.3
20260905184517 57 0 6.0 12.0 0.00 0.15 0.05 100 1001.3
20260905184016 57 0 7.0 14.0 0.00 0.15 0.05 100 1001.2
20260905183516 57 338 6.0 12.0 0.00 0.15 0.05 100 1001.2
20260905183017 57 0 7.0 11.0 0.00 0.15 0.05 100 1001.1
20260905182516 57 338 6.0 13.0 0.00 0.15 0.05 100 1001.2
20260905182017 58 0 6.0 9.0 0.00 0.15 0.05 100 1001.2
20260905181516 58 338 6.0 11.0 0.01 0.15 0.05 100 1001.2
20260905181017 58 338 6.0 10.0 0.01 0.15 0.05 100 1001.0
20260905180517 58 0 6.0 13.0 0.01 0.15 0.05 100 1000.9
20260905180016 58 0 6.0 10.0 0.01 0.15 0.05 100 1001.1
20260905175517 58 0 6.0 15.0 0.01 0.15 0.05 100 1001.0
20260905175017 58 338 5.0 8.0 0.01 0.15 0.05 100 1001.0
20260905174517 58 338 5.0 8.0 0.01 0.15 0.05 100 1001.0
20260905174016 58 338 5.0 8.0 0.01 0.15 0.05 100 1000.9
20260905173517 58 338 6.0 11.0 0.01 0.15 0.05 100 1000.9
20260905173017 58 338 5.0 7.0 0.01 0.15 0.05 100 1000.8
20260905172517 58 0 6.0 11.0 0.01 0.15 0.05 100 1000.8
20260905172017 58 0 6.0 12.0 0.01 0.15 0.05 100 1000.7
20260905171517 58 0 7.0 11.0 0.00 0.14 0.04 100 1000.6
20260905171017 58 0 6.0 11.0 0.00 0.14 0.04 100 1000.6
20260905170516 58 338 8.0 14.0 0.00 0.14 0.04 99 1000.6
20260905170017 58 338 6.0 11.0 0.00 0.14 0.04 100 1000.5
20260905165516 59 23 6.0 9.0 0.00 0.14 0.04 100 1000.5
20260905165017 59 0 7.0 13.0 0.00 0.14 0.04 99 1000.5
20260905164517 59 0 5.0 10.0 0.00 0.14 0.04 100 1000.4
20260905164017 59 0 6.0 11.0 0.00 0.14 0.04 100 1000.3
20260905163516 59 338 5.0 8.0 0.00 0.14 0.04 100 1000.3
20260905163016 60 0 6.0 12.0 0.00 0.14 0.04 100 1000.2
20260905162517 60 0 5.0 15.0 0.00 0.14 0.04 99 1000.2
20260905162017 60 0 5.0 12.0 0.00 0.14 0.04 99 1000.1
20260905161517 60 338 5.0 8.0 0.00 0.14 0.04 99 1000.1
20260905161017 60 0 6.0 10.0 0.00 0.14 0.04 99 1000.0
20260905160517 60 0 5.0 11.0 0.00 0.14 0.04 99 1000.0
20260905160017 60 0 6.0 12.0 0.00 0.14 0.04 99 999.8
20260905155517 60 0 6.0 12.0 0.00 0.14 0.04 99 999.8
20260905155017 60 0 7.0 15.0 0.00 0.14 0.04 98 999.7
20260905154517 60 0 5.0 8.0 0.00 0.15 0.04 99 999.7
20260905154017 60 0 6.0 12.0 0.00 0.15 0.04 99 999.6
20260905153517 60 0 5.0 10.0 0.00 0.15 0.04 99 999.6
20260905153017 60 338 7.0 12.0 0.00 0.16 0.04 98 999.6
20260905152517 60 0 6.0 13.0 0.00 0.17 0.04 99 999.6
20260905152017 60 0 6.0 11.0 0.00 0.17 0.04 99 999.6
20260905151517 60 0 6.0 12.0 0.00 0.19 0.04 99 999.6
20260905151017 60 0 7.0 12.0 0.00 0.25 0.04 99 999.6
20260905150517 60 0 5.0 9.0 0.00 0.30 0.04 99 999.6
20260905150017 60 0 6.0 10.0 0.00 0.31 0.04 99 999.6
20260905145516 60 0 6.0 15.0 0.00 0.31 0.04 99 999.7
20260905145016 60 0 6.0 10.0 0.00 0.31 0.04 99 999.6
20260905144517 60 0 5.0 8.0 0.00 0.31 0.04 99 999.7
20260905144017 60 0 5.0 10.0 0.00 0.31 0.04 99 999.7
20260905143517 60 0 5.0 10.0 0.00 0.31 0.04 99 999.7
20260905143017 60 0 5.0 10.0 0.00 0.32 0.04 98 999.7
20260905142517 60 0 6.0 13.0 0.00 0.32 0.04 98 999.7
20260905142017 60 0 6.0 11.0 0.01 0.33 0.04 98 999.6
20260905141516 60 0 6.0 10.0 0.01 0.34 0.04 98 999.6
20260905141017 59 0 6.0 17.0 0.01 0.35 0.04 98 999.7
20260905140517 59 0 5.0 13.0 0.01 0.36 0.04 99 999.7
20260905140017 59 0 6.0 13.0 0.01 0.37 0.04 98 999.6
20260905135517 59 338 6.0 11.0 0.01 0.37 0.04 98 999.7
20260905135017 60 0 5.0 10.0 0.01 0.38 0.04 99 999.6
20260905134517 60 0 5.0 9.0 0.01 0.39 0.04 99 999.5
20260905134016 60 338 7.0 12.0 0.01 0.40 0.04 99 999.5
20260905133516 60 338 6.0 12.0 0.01 0.45 0.04 99 999.5
20260905133016 60 0 5.0 9.0 0.01 0.51 0.04 99 999.5
20260905132517 60 0 5.0 9.0 0.01 0.52 0.04 99 999.6
20260905132017 60 23 4.0 8.0 0.00 0.52 0.03 99 999.5
20260905131517 60 338 3.0 5.0 0.00 0.53 0.03 99 999.4
20260905131017 60 338 5.0 9.0 0.00 0.53 0.03 99 999.3
20260905130517 60 338 6.0 10.0 0.00 0.54 0.03 98 999.3
20260905130017 61 0 4.0 8.0 0.00 0.54 0.03 99 999.3
20260905125517 61 0 4.0 7.0 0.00 0.55 0.03 98 999.3
20260905125017 61 0 4.0 11.0 0.00 0.55 0.03 98 999.3
20260905124517 61 338 5.0 8.0 0.00 0.56 0.03 98 999.3
20260905124017 61 0 3.0 7.0 0.00 0.57 0.03 99 999.4
20260905123517 62 338 4.0 6.0 0.00 0.57 0.03 99 999.4
20260905123017 61 0 3.0 8.0 0.00 0.57 0.03 99 999.2
20260905122516 61 45 3.0 9.0 0.00 0.58 0.03 99 999.2
20260905122017 61 23 3.0 5.0 0.00 0.59 0.03 99 999.2
20260905121517 60 23 4.0 5.0 0.00 0.60 0.03 99 999.2
20260905121017 60 23 5.0 9.0 0.01 0.61 0.03 100 999.3
20260905120517 60 23 4.0 9.0 0.01 0.65 0.03 100 999.2
20260905120017 60 0 4.0 8.0 0.01 0.68 0.03 100 999.3
20260905115517 61 0 4.0 11.0 0.01 0.69 0.03 100 999.2
20260905115017 61 0 5.0 9.0 0.01 0.69 0.03 100 999.3
20260905114516 61 0 4.0 7.0 0.02 0.69 0.03 100 999.1
20260905114017 61 0 5.0 9.0 0.02 0.69 0.03 100 999.1
20260905113517 61 0 5.0 10.0 0.02 0.70 0.03 100 998.9
20260905113016 61 0 4.0 7.0 0.02 0.70 0.03 100 998.8
20260905112517 61 0 4.0 7.0 0.02 0.71 0.03 100 998.7
20260905112017 61 0 3.0 6.0 0.02 0.72 0.03 100 998.5
20260905111516 61 338 3.0 6.0 0.02 0.72 0.03 100 998.6
20260905111017 61 0 3.0 5.0 0.02 0.72 0.02 100 998.5
20260905110516 61 338 3.0 6.0 0.02 0.74 0.02 100 998.5
20260905110017 61 338 3.0 6.0 0.02 0.76 0.02 100 998.4
20260905105516 61 338 2.0 6.0 0.02 0.77 0.02 100 998.3
20260905105017 61 338 2.0 4.0 0.02 0.78 0.02 100 998.4
20260905104517 61 338 2.0 5.0 0.01 0.80 0.02 100 998.3
20260905104017 61 338 2.0 3.0 0.01 0.81 0.02 100 998.3
20260905103517 61 338 2.0 5.0 0.01 0.82 0.02 100 998.2
20260905103016 61 338 2.0 5.0 0.01 0.83 0.02 100 998.2
20260905102517 61 338 2.0 6.0 0.01 0.83 0.02 100 998.2
20260905102016 61 338 2.0 6.0 0.00 0.86 0.01 100 998.3
20260905101517 61 338 2.0 3.0 0.00 0.91 0.01 100 998.3
20260905101016 60 338 1.0 2.0 0.00 0.94 0.01 100 998.2
20260905100517 61 338 1.0 3.0 0.00 0.98 0.01 100 998.1
20260905100016 60 0 1.0 2.0 0.00 1.04 0.01 100 998.1
20260905095516 60 0 1.0 4.0 0.00 1.08 0.01 100 998.1
20260905095017 60 338 1.0 2.0 0.00 1.10 0.01 100 998.1
20260905094516 60 338 1.0 3.0 0.00 1.13 0.01 100 998.1
20260905094017 60 338 1.0 3.0 0.00 1.15 0.01 100 998.1